IW9CSJ-13 Weather Reports


time (UTC)temp
C
wind
direction
speed
KPH
gust
KPH
rain 1hr
cm
rain 24hr
cm
rain mn
cm
humidity
%
barometer
mb
20260507103522 20 135 9.7 17.7 0.00 0.00 0.00 42 1010.8
20260507103019 20 143 6.4 14.5 0.00 0.00 0.00 43 1010.6
20260507103017 20 150 6.4 16.1 0.00 0.00 0.00 42 1010.5
20260507102526 20 143 6.4 14.5 0.00 0.00 0.00 43 1010.6
20260507102020 20 144 8.0 24.1 0.00 0.00 0.00 42 1010.6
20260507101524 20 144 8.0 24.1 0.00 0.00 0.00 42 1010.6
20260507101520 20 81 3.2 11.3 0.00 0.00 0.00 42 1010.7
20260507101023 20 81 3.2 11.3 0.00 0.00 0.00 42 1010.7
20260507101021 21 31 4.8 14.5 0.00 0.00 0.00 42 1010.8
20260507100521 20 111 4.8 16.1 0.00 0.00 0.00 43 1010.6
20260507100021 20 65 4.8 14.5 0.00 0.00 0.00 42 1010.8
20260507100019 20 111 4.8 16.1 0.00 0.00 0.00 43 1010.6
20260507095520 20 65 4.8 14.5 0.00 0.00 0.00 42 1010.8
20260507095019 21 72 9.7 33.8 0.00 0.00 0.00 41 1010.8
20260507094521 21 72 9.7 33.8 0.00 0.00 0.00 41 1010.8
20260507094023 20 359 11.3 20.9 0.00 0.00 0.00 41 1010.9
20260507094021 20 88 14.5 24.1 0.00 0.00 0.00 43 1010.9
20260507093520 20 107 14.5 24.1 0.00 0.00 0.00 42 1010.9
20260507093021 20 99 14.5 32.2 0.00 0.00 0.00 42 1010.8
20260507093019 20 107 14.5 24.1 0.00 0.00 0.00 42 1010.9
20260507092515 20 99 14.5 32.2 0.00 0.00 0.00 42 1010.8
20260507092025 20 65 17.7 45.1 0.00 0.00 0.00 42 1011.0
20260507092019 20 26 16.1 38.6 0.00 0.00 0.00 44 1010.8
20260507091524 20 26 16.1 38.6 0.00 0.00 0.00 44 1010.8
20260507091022 20 70 12.9 24.1 0.00 0.00 0.00 45 1010.8
20260507091015 20 70 12.9 24.1 0.00 0.00 0.00 45 1010.8
20260507090525 20 61 8.0 22.5 0.00 0.00 0.00 44 1010.7
20260507090519 20 7 8.0 19.3 0.00 0.00 0.00 44 1010.7
20260507090024 20 7 8.0 19.3 0.00 0.00 0.00 44 1010.7
20260507090019 20 3 12.9 30.6 0.00 0.00 0.00 44 1010.8
20260507085521 20 52 19.3 37.0 0.00 0.00 0.00 44 1011.0
20260507085043 20 52 19.3 37.0 0.00 0.00 0.00 44 1011.0
20260507085021 20 39 14.5 27.4 0.00 0.00 0.00 44 1010.9
20260507084524 20 39 14.5 27.4 0.00 0.00 0.00 44 1010.9
20260507084020 20 65 14.5 30.6 0.00 0.00 0.00 45 1011.0
20260507083540 20 114 16.1 35.4 0.00 0.00 0.00 44 1011.0
20260507083522 20 65 14.5 30.6 0.00 0.00 0.00 45 1011.0
20260507083021 19 89 12.9 35.4 0.00 0.00 0.00 43 1010.9
20260507083018 20 114 16.1 35.4 0.00 0.00 0.00 44 1011.0
20260507082519 19 89 12.9 35.4 0.00 0.00 0.00 43 1010.9
20260507082019 19 104 16.1 33.8 0.00 0.00 0.00 46 1011.0
20260507081517 19 68 12.9 32.2 0.00 0.00 0.00 46 1010.9
20260507081027 19 101 11.3 24.1 0.00 0.00 0.00 50 1010.9
20260507081022 19 120 14.5 38.6 0.00 0.00 0.00 48 1010.9
20260507080523 19 90 8.0 20.9 0.00 0.00 0.00 51 1010.9
20260507080520 19 101 11.3 24.1 0.00 0.00 0.00 50 1010.9
20260507080019 19 90 8.0 20.9 0.00 0.00 0.00 51 1010.9
20260507080015 19 90 8.0 20.9 0.00 0.00 0.00 51 1010.9
20260507075523 20 61 11.3 24.1 0.00 0.00 0.00 50 1011.0
20260507075518 20 92 6.4 16.1 0.00 0.00 0.00 50 1010.9
20260507075021 20 129 4.8 19.3 0.00 0.00 0.00 48 1011.0
20260507075018 20 92 6.4 16.1 0.00 0.00 0.00 50 1010.9
20260507074518 20 129 4.8 19.3 0.00 0.00 0.00 48 1011.0
20260507074021 20 98 4.8 16.1 0.00 0.00 0.00 50 1011.2
20260507074017 20 59 6.4 17.7 0.00 0.00 0.00 49 1010.9
20260507073519 20 98 4.8 16.1 0.00 0.00 0.00 50 1011.2
20260507073022 19 122 6.4 19.3 0.00 0.00 0.00 50 1011.2
20260507073020 19 145 8.0 19.3 0.00 0.00 0.00 49 1011.3
20260507072520 19 145 8.0 19.3 0.00 0.00 0.00 49 1011.3
20260507072518 19 78 6.4 12.9 0.00 0.00 0.00 50 1011.3
20260507072019 19 78 6.4 12.9 0.00 0.00 0.00 50 1011.3
20260507072017 19 78 6.4 12.9 0.00 0.00 0.00 50 1011.3
20260507071519 19 65 6.4 20.9 0.00 0.00 0.00 52 1011.4
20260507071025 19 47 9.7 29.0 0.00 0.00 0.00 52 1011.5
20260507071019 18 28 6.4 12.9 0.00 0.00 0.00 53 1011.5
20260507070522 18 28 6.4 12.9 0.00 0.00 0.00 53 1011.5
20260507070025 18 34 6.4 14.5 0.00 0.00 0.00 54 1011.5
20260507065519 18 25 8.0 17.7 0.00 0.00 0.00 55 1011.8
20260507065022 18 25 8.0 17.7 0.00 0.00 0.00 55 1011.8
20260507064522 18 5 9.7 19.3 0.00 0.00 0.00 54 1012.0
20260507064024 18 21 9.7 17.7 0.00 0.00 0.00 55 1012.1
20260507064019 18 62 8.0 17.7 0.00 0.00 0.00 54 1012.2
20260507063519 18 20 8.0 25.7 0.00 0.00 0.00 55 1012.2
20260507063020 18 20 8.0 25.7 0.00 0.00 0.00 55 1012.2
20260507063015 18 20 8.0 25.7 0.00 0.00 0.00 55 1012.2
20260507062537 18 29 9.7 19.3 0.00 0.00 0.00 55 1012.2
20260507062520 18 29 9.7 19.3 0.00 0.00 0.00 55 1012.2
20260507062019 18 360 8.0 19.3 0.00 0.00 0.00 56 1012.2
20260507062016 18 360 8.0 19.3 0.00 0.00 0.00 56 1012.2
20260507061515 18 16 3.2 9.7 0.00 0.00 0.00 56 1012.3
20260507061020 17 330 4.8 11.3 0.00 0.00 0.00 56 1012.2
20260507060522 17 22 8.0 20.9 0.00 0.00 0.00 56 1012.4
20260507060021 17 31 8.0 17.7 0.00 0.00 0.00 60 1012.4
20260507060017 17 21 4.8 14.5 0.00 0.00 0.00 59 1012.4
20260507055521 17 31 8.0 17.7 0.00 0.00 0.00 60 1012.4
20260507055024 16 31 4.8 14.5 0.00 0.00 0.00 63 1012.2
20260507055022 16 341 4.8 12.9 0.00 0.00 0.00 64 1012.3
20260507054515 16 341 4.8 12.9 0.00 0.00 0.00 64 1012.3
20260507054035 16 349 6.4 17.7 0.00 0.00 0.00 65 1012.3
20260507054018 16 349 6.4 17.7 0.00 0.00 0.00 65 1012.3
20260507053520 16 35 6.4 12.9 0.00 0.00 0.00 69 1012.3
20260507053045 16 35 6.4 12.9 0.00 0.00 0.00 69 1012.3
20260507052522 16 348 3.2 9.7 0.00 0.00 0.00 71 1012.2
20260507052024 16 352 3.2 9.7 0.00 0.00 0.00 72 1012.3
20260507052018 16 0 3.2 9.7 0.00 0.00 0.00 73 1012.4
20260507051523 16 0 3.2 9.7 0.00 0.00 0.00 73 1012.4
20260507051020 15 319 1.6 6.4 0.00 0.00 0.00 73 1012.4
20260507050523 15 334 0.0 4.8 0.00 0.00 0.00 73 1012.2
20260507050519 15 315 0.0 3.2 0.00 0.00 0.00 73 1012.2
20260507050016 15 315 0.0 3.2 0.00 0.00 0.00 73 1012.2
20260507045543 15 0.0 0.0 0.00 0.00 0.00 73 1012.3
20260507045519 16 293 0.0 3.2 0.00 0.00 0.00 73 1012.4
20260507045039 16 293 0.0 3.2 0.00 0.00 0.00 73 1012.4
20260507044523 16 3 3.2 9.7 0.00 0.00 0.00 72 1012.5
20260507044520 16 26 6.4 17.7 0.00 0.00 0.00 71 1012.6
20260507044021 16 106 6.4 14.5 0.00 0.00 0.00 70 1012.6
20260507043539 16 106 6.4 14.5 0.00 0.00 0.00 70 1012.6
20260507043020 16 72 4.8 11.3 0.00 0.00 0.00 67 1012.5
20260507042542 16 72 4.8 11.3 0.00 0.00 0.00 67 1012.5
20260507042019 16 346 1.6 6.4 0.00 0.00 0.00 65 1012.6
20260507041546 16 346 1.6 6.4 0.00 0.00 0.00 65 1012.6
20260507041017 16 346 1.6 8.0 0.00 0.00 0.00 65 1012.6
20260507040524 16 26 4.8 12.9 0.00 0.00 0.00 65 1012.5
20260507040036 16 25 4.8 12.9 0.00 0.00 0.00 66 1012.5
20260507040019 16 25 4.8 12.9 0.00 0.00 0.00 66 1012.5
20260507035536 16 32 1.6 6.4 0.00 0.00 0.00 66 1012.4
20260507035518 16 32 1.6 6.4 0.00 0.00 0.00 66 1012.4
20260507035025 16 333 1.6 8.0 0.00 0.00 0.00 66 1012.4
20260507035020 16 330 6.4 11.3 0.00 0.00 0.00 67 1012.4
20260507034522 16 330 6.4 11.3 0.00 0.00 0.00 67 1012.4
20260507034025 16 293 0.0 3.2 0.00 0.00 0.00 69 1012.4
20260507033519 15 301 4.8 11.3 0.00 0.00 0.00 72 1012.4
20260507033515 15 301 4.8 11.3 0.00 0.00 0.00 72 1012.4
20260507033040 15 24 1.6 6.4 0.00 0.00 0.00 77 1012.4
20260507032537 15 78 1.6 6.4 0.00 0.00 0.00 80 1012.3
20260507032522 15 92 1.6 6.4 0.00 0.00 0.00 84 1012.3
20260507032019 15 92 1.6 6.4 0.00 0.00 0.00 84 1012.3
20260507032016 15 92 1.6 6.4 0.00 0.00 0.00 84 1012.3
20260507031522 14 8 1.6 6.4 0.00 0.00 0.00 86 1012.3
20260507031045 14 0.0 0.0 0.00 0.00 0.00 87 1012.3
20260507030521 14 308 0.0 3.2 0.00 0.00 0.00 88 1012.2
20260507030134 14 293 0.0 3.2 0.00 0.00 0.00 88 1012.0
20260507025524 14 346 3.2 6.4 0.00 0.00 0.00 88 1012.2
20260507025518 15 299 1.6 6.4 0.00 0.00 0.00 88 1012.2
20260507025019 15 299 1.6 6.4 0.00 0.00 0.00 88 1012.2
20260507025016 15 299 1.6 6.4 0.00 0.00 0.00 88 1012.2
20260507024537 15 338 0.0 3.2 0.00 0.00 0.00 88 1012.2
20260507024017 14 0.0 0.0 0.00 0.00 0.00 88 1012.1
20260507023517 14 134 0.0 6.4 0.00 0.00 0.00 88 1012.0
20260507023022 14 116 1.6 4.8 0.00 0.00 0.00 88 1012.0
20260507022520 14 180 0.0 3.2 0.00 0.00 0.00 88 1012.1
20260507022016 14 141 1.6 8.0 0.00 0.00 0.00 88 1012.1
20260507021515 14 90 0.0 1.6 0.00 0.00 0.00 87 1012.0
20260507021020 15 348 1.6 4.8 0.00 0.00 0.00 87 1012.3
20260507020524 15 338 0.0 4.8 0.00 0.00 0.00 87 1012.4
20260507020134 15 340 1.6 4.8 0.00 0.00 0.00 87 1012.4
20260507020021 15 356 1.6 4.8 0.00 0.00 0.00 87 1012.4
20260507015521 15 37 3.2 9.7 0.00 0.00 0.00 86 1012.4
20260507015518 15 356 1.6 4.8 0.00 0.00 0.00 87 1012.4
20260507015019 15 128 3.2 8.0 0.00 0.00 0.00 86 1012.3
20260507014518 15 128 3.2 8.0 0.00 0.00 0.00 86 1012.3
20260507014043 15 0.0 0.0 0.00 0.00 0.00 85 1012.4
20260507013522 15 0 0.0 1.6 0.00 0.00 0.00 84 1012.5
20260507013520 15 0 0.0 4.8 0.00 0.00 0.00 85 1012.4
20260507012524 15 0 0.0 1.6 0.00 0.00 0.00 84 1012.5
20260507012521 15 0 0.0 3.2 0.00 0.00 0.00 83 1012.5
20260507012026 15 0 0.0 3.2 0.00 0.00 0.00 83 1012.5
20260507012021 15 357 1.6 6.4 0.00 0.00 0.00 83 1012.5
20260507011515 15 357 1.6 6.4 0.00 0.00 0.00 83 1012.5
20260507011021 15 47 0.0 4.8 0.00 0.00 0.00 83 1012.6
20260507010524 15 47 0.0 4.8 0.00 0.00 0.00 83 1012.6
20260507010520 15 147 1.6 6.4 0.00 0.00 0.00 83 1012.8
20260507010154 15 147 1.6 6.4 0.00 0.00 0.00 83 1012.8
20260507010018 15 106 0.0 3.2 0.00 0.00 0.00 83 1012.8
20260507005517 15 106 0.0 3.2 0.00 0.00 0.00 83 1012.8
20260507005018 15 55 0.0 3.2 0.00 0.00 0.00 83 1012.8
20260507004546 15 55 0.0 3.2 0.00 0.00 0.00 83 1012.8
20260507004024 15 3 0.0 6.4 0.00 0.00 0.00 82 1012.8
20260507003524 15 90 0.0 3.2 0.00 0.00 0.00 82 1012.8
20260507003519 15 39 1.6 6.4 0.00 0.00 0.00 82 1012.8
20260507003021 15 159 1.6 8.0 0.00 0.00 0.00 82 1012.8
20260507002525 15 159 1.6 8.0 0.00 0.00 0.00 82 1012.8
20260507002042 15 56 1.6 4.8 0.00 0.00 0.00 82 1012.8
20260507001542 15 47 1.6 9.7 0.00 0.00 0.00 82 1012.8
20260507001022 15 125 1.6 8.0 0.00 0.00 0.00 81 1012.9
20260507000520 15 70 0.0 4.8 0.00 0.00 0.00 81 1012.8
20260507000516 15 70 0.0 4.8 0.00 0.00 0.00 81 1012.8
20260507000135 15 51 0.0 1.6 0.00 0.00 0.00 80 1012.9
20260507000020 15 0.0 0.0 0.00 0.00 0.00 80 1012.9
20260506235520 15 112 0.0 4.8 0.00 0.00 0.00 80 1012.9
20260506235518 15 0.0 0.0 0.00 0.00 0.00 80 1012.9
20260506235020 15 112 0.0 4.8 0.00 0.00 0.00 80 1012.9
20260506235018 15 158 0.0 6.4 0.00 0.00 0.00 80 1013.0
20260506234524 15 158 0.0 6.4 0.00 0.00 0.00 80 1013.0
20260506234022 15 52 3.2 8.0 0.00 0.00 0.00 80 1013.0
20260506234019 15 160 3.2 16.1 0.00 0.00 0.00 79 1013.0
20260506233519 15 160 3.2 16.1 0.00 0.00 0.00 79 1013.0
20260506233019 15 25 1.6 9.7 0.00 0.00 0.00 79 1012.9
20260506233016 15 25 1.6 9.7 0.00 0.00 0.00 79 1012.9
20260506232538 15 117 0.0 3.2 0.00 0.00 0.00 78 1012.9
20260506232522 15 355 1.6 9.7 0.00 0.00 0.00 78 1012.9
20260506232019 15 155 1.6 11.3 0.00 0.00 0.00 79 1013.0
20260506231519 15 315 0.0 4.8 0.00 0.00 0.00 79 1013.0
20260506231022 15 315 0.0 4.8 0.00 0.00 0.00 79 1013.0
20260506231020 15 135 0.0 1.6 0.00 0.00 0.00 79 1013.0
20260506230524 15 135 0.0 1.6 0.00 0.00 0.00 79 1013.0
20260506230520 15 144 1.6 11.3 0.00 0.00 0.00 79 1012.8
20260506230022 15 144 1.6 11.3 0.00 0.00 0.00 79 1012.8
20260506225524 15 104 0.0 4.8 0.00 0.00 0.00 79 1012.8
20260506225516 15 104 0.0 4.8 0.00 0.00 0.00 79 1012.8
20260506225022 15 18 1.6 11.3 0.00 0.00 0.00 78 1012.8
20260506224522 15 114 1.6 8.0 0.00 0.00 0.00 78 1012.7
20260506224020 15 2 1.6 8.0 0.00 0.00 0.00 78 1012.6
20260506223525 15 100 1.6 6.4 0.00 0.00 0.00 78 1012.7
20260506223520 15 90 3.2 9.7 0.00 0.00 0.00 78 1012.7
20260506223023 15 90 3.2 9.7 0.00 0.00 0.00 78 1012.7
20260506222523 15 164 1.6 9.7 0.00 0.00 0.00 78 1012.6
20260506222025 15 1 1.6 6.4 0.00 0.00 0.00 79 1012.7
20260506222021 15 2 4.8 11.3 0.00 0.00 0.00 79 1012.5
20260506221521 15 1 1.6 6.4 0.00 0.00 0.00 79 1012.7
20260506221024 15 117 3.2 9.7 0.00 0.00 0.00 80 1012.7
20260506221018 15 60 3.2 9.7 0.00 0.00 0.00 81 1012.7
20260506220525 15 60 3.2 9.7 0.00 0.00 0.00 81 1012.7
20260506220021 15 100 3.2 9.7 0.00 0.00 0.00 85 1012.6
20260506220019 15 125 0.0 3.2 0.00 0.00 0.00 83 1012.5
20260506215520 15 100 3.2 9.7 0.00 0.00 0.00 85 1012.6
20260506215045 15 9 0.0 6.4 0.00 0.00 0.00 86 1012.7
20260506214643 14 342 1.6 6.4 0.00 0.00 0.00 87 1012.7
20260506214017 14 302 1.6 6.4 0.00 0.00 0.00 88 1012.6
20260506213522 14 334 3.2 9.7 0.00 0.00 0.00 88 1012.8
20260506213518 14 345 0.0 3.2 0.00 0.00 0.00 88 1012.7
20260506213016 14 345 0.0 3.2 0.00 0.00 0.00 88 1012.7
20260506212522 14 23 0.0 3.2 0.00 0.00 0.00 88 1012.3
20260506212520 14 7 0.0 1.6 0.00 0.00 0.00 88 1012.5
20260506212058 14 23 0.0 3.2 0.00 0.00 0.00 88 1012.3
20260506212021 14 0.0 0.0 0.00 0.00 0.00 88 1012.2
20260506211523 14 0.0 0.0 0.00 0.00 0.00 88 1012.2
20260506211024 14 0.0 0.0 0.00 0.00 0.00 88 1012.3
20260506211019 14 0.0 0.0 0.00 0.00 0.00 88 1012.3
20260506210524 14 0.0 0.0 0.00 0.00 0.00 88 1012.3
20260506210021 14 0.0 0.0 0.00 0.00 0.00 88 1012.4
20260506205515 14 0.0 0.0 0.00 0.00 0.00 88 1012.6
20260506205023 15 0.0 0.0 0.00 0.00 0.00 88 1012.7
20260506204526 15 0.0 0.0 0.00 0.00 0.00 88 1012.8
20260506204016 15 0.0 0.0 0.00 0.00 0.00 88 1012.8
20260506203522 15 14 0.0 3.2 0.00 0.00 0.00 88 1013.0
20260506203520 15 23 0.0 3.2 0.00 0.00 0.00 88 1012.8
20260506203019 15 350 1.6 6.4 0.00 0.00 0.00 88 1013.2
20260506202525 15 350 1.6 6.4 0.00 0.00 0.00 88 1013.2
20260506202044 15 23 0.0 3.2 0.00 0.00 0.00 88 1013.4
20260506202020 15 14 0.0 4.8 0.00 0.00 0.00 88 1013.4
20260506201538 15 14 0.0 4.8 0.00 0.00 0.00 88 1013.4
20260506201520 15 0.0 0.0 0.00 0.00 0.00 88 1013.5
20260506201102 15 0.0 0.0 0.00 0.00 0.00 88 1013.5
20260506200515 14 118 0.0 3.2 0.00 0.00 0.00 88 1013.6
20260506200025 14 338 0.0 4.8 0.00 0.00 0.00 88 1013.6
20260506195517 14 328 3.2 8.0 0.00 0.00 0.00 88 1013.7
20260506195022 14 351 1.6 6.4 0.00 0.00 0.00 88 1013.7
20260506194519 14 0 0.0 3.2 0.00 0.00 0.00 88 1013.6
20260506194021 14 92 0.0 6.4 0.00 0.00 0.00 88 1013.7
20260506193602 14 92 0.0 6.4 0.00 0.00 0.00 88 1013.7
20260506193024 14 324 1.6 4.8 0.00 0.00 0.00 88 1013.7
20260506193019 15 0.0 0.0 0.00 0.00 0.00 88 1013.7
20260506192518 15 0.0 0.0 0.00 0.00 0.00 88 1013.7
20260506192025 15 0.0 0.0 0.00 0.00 0.00 88 1013.6
20260506191518 15 97 0.0 4.8 0.00 0.00 0.00 88 1013.6
20260506191024 15 0 0.0 6.4 0.00 0.00 0.00 88 1013.6
20260506190523 15 0 1.6 6.4 0.00 0.00 0.00 88 1013.6
20260506190022 15 358 0.0 6.4 0.00 0.00 0.00 88 1013.7
20260506190019 15 360 3.2 9.7 0.00 0.00 0.00 88 1013.8
20260506185518 15 358 0.0 6.4 0.00 0.00 0.00 88 1013.7
20260506185017 15 35 1.6 4.8 0.00 0.00 0.00 88 1013.7
20260506184524 15 25 1.6 6.4 0.00 0.00 0.00 88 1013.5
20260506184519 15 0.0 0.0 0.00 0.00 0.00 88 1013.5
20260506184018 15 0.0 0.0 0.00 0.00 0.00 88 1013.5
20260506183524 15 0.0 0.0 0.00 0.00 0.00 88 1013.3
20260506183520 15 128 0.0 6.4 0.00 0.00 0.00 88 1013.4
20260506183017 15 0.0 0.0 0.00 0.00 0.00 88 1013.3
20260506182523 15 158 0.0 3.2 0.00 0.00 0.00 88 1013.4
20260506182023 15 0.0 0.0 0.00 0.00 0.00 88 1013.3
20260506182019 15 0.0 0.0 0.00 0.00 0.00 88 1013.4
20260506181523 15 0.0 0.0 0.00 0.00 0.00 88 1013.3
20260506181518 15 0.0 0.0 0.00 0.00 0.00 88 1013.2
20260506181020 15 293 0.0 1.6 0.00 0.00 0.00 87 1013.2
20260506180520 15 293 0.0 1.6 0.00 0.00 0.00 87 1013.2
20260506180518 15 135 0.0 4.8 0.00 0.00 0.00 87 1013.2
20260506180036 15 135 0.0 4.8 0.00 0.00 0.00 87 1013.2
20260506180021 15 135 0.0 4.8 0.00 0.00 0.00 87 1013.2
20260506175541 15 0.0 0.0 0.00 0.00 0.00 87 1013.1
20260506175521 15 0.0 0.0 0.00 0.00 0.00 87 1013.0
20260506175020 15 0.0 0.0 0.00 0.00 0.00 87 1012.9
20260506175018 15 0.0 0.0 0.00 0.00 0.00 87 1013.0
20260506174522 15 0.0 0.0 0.00 0.00 0.00 87 1012.9
20260506174019 15 0.0 0.0 0.00 0.00 0.00 87 1012.8
20260506174017 15 0.0 0.0 0.00 0.00 0.00 87 1012.8
20260506173547 15 0.0 0.0 0.00 0.00 0.00 87 1012.8
20260506173523 15 0.0 0.0 0.00 0.00 0.00 87 1012.7
20260506173025 15 0.0 0.0 0.00 0.00 0.00 87 1012.8
20260506173021 15 146 0.0 3.2 0.00 0.00 0.00 87 1012.8
20260506172523 15 152 0.0 3.2 0.00 0.00 0.00 87 1012.8
20260506172024 15 152 0.0 3.2 0.00 0.00 0.00 87 1012.8
20260506171520 15 135 0.0 3.2 0.00 0.00 0.00 87 1012.9
20260506171019 15 0.0 0.0 0.00 0.00 0.00 87 1012.9
20260506170522 15 0.0 0.0 0.00 0.00 0.00 87 1012.9
20260506170019 16 107 0.0 3.2 0.00 0.00 0.00 86 1013.0
20260506165535 16 136 1.6 6.4 0.00 0.00 0.00 86 1013.0
20260506165518 16 107 0.0 3.2 0.00 0.00 0.00 86 1013.0
20260506165024 16 136 1.6 6.4 0.00 0.00 0.00 86 1013.0
20260506165021 16 143 0.0 6.4 0.00 0.00 0.00 86 1013.1
20260506164525 16 156 1.6 6.4 0.00 0.00 0.00 86 1013.1
20260506164520 16 143 0.0 6.4 0.00 0.00 0.00 86 1013.1
20260506164023 16 156 1.6 6.4 0.00 0.00 0.00 86 1013.1
20260506164021 16 0.0 0.0 0.00 0.00 0.00 86 1013.1
20260506163545 16 0.0 0.0 0.00 0.00 0.00 86 1013.1
20260506163519 16 128 0.0 3.2 0.00 0.00 0.00 86 1013.1
20260506163020 16 0.0 0.0 0.00 0.00 0.00 86 1013.2
20260506162539 16 0.0 0.0 0.00 0.00 0.00 86 1013.2
20260506162518 16 0.0 0.0 0.00 0.00 0.00 86 1013.1
20260506162027 16 0.0 0.0 0.00 0.00 0.00 86 1013.1
20260506161519 16 0.0 0.0 0.00 0.00 0.00 86 1013.2
20260506161019 16 0.0 0.0 0.00 0.00 0.00 87 1013.3
20260506160523 16 0.0 0.0 0.00 0.00 0.00 87 1013.3
20260506160519 16 0.0 0.0 0.00 0.00 0.00 87 1013.4
20260506160026 16 0.0 0.0 0.00 0.00 0.00 87 1013.4
20260506160019 16 0.0 0.0 0.00 0.00 0.00 87 1013.3
20260506155523 16 0.0 0.0 0.00 0.00 0.00 87 1013.3
20260506155025 16 150 0.0 4.8 0.00 0.00 0.00 87 1013.3
20260506155020 16 113 0.0 3.2 0.00 0.00 0.00 87 1013.4
20260506154525 16 135 1.6 6.4 0.00 0.00 0.00 87 1013.5
20260506154520 16 113 0.0 3.2 0.00 0.00 0.00 87 1013.4
20260506154040 16 135 1.6 6.4 0.00 0.00 0.00 87 1013.5
20260506153515 16 145 4.8 9.7 0.00 0.00 0.00 87 1013.6
20260506153026 16 146 3.2 9.7 0.00 0.00 0.00 87 1013.7
20260506153021 16 148 3.2 9.7 0.00 0.00 0.00 87 1013.6
20260506152521 16 148 3.2 9.7 0.00 0.00 0.00 87 1013.6
20260506152515 16 148 3.2 9.7 0.00 0.00 0.00 87 1013.6
20260506152043 16 117 1.6 9.7 0.00 0.00 0.00 86 1013.5
20260506151523 16 112 1.6 9.7 0.00 0.00 0.00 86 1013.4
20260506151021 16 142 6.4 16.1 0.00 0.00 0.00 86 1013.5
20260506151019 16 112 1.6 9.7 0.00 0.00 0.00 86 1013.4
20260506150521 16 149 4.8 14.5 0.00 0.00 0.00 87 1013.5
20260506150517 16 142 6.4 16.1 0.00 0.00 0.00 86 1013.5
20260506150020 16 149 4.8 14.5 0.00 0.00 0.00 87 1013.5
20260506150018 16 133 3.2 12.9 0.00 0.00 0.00 87 1013.5
20260506145521 16 133 3.2 12.9 0.00 0.00 0.00 87 1013.5
20260506145519 16 121 4.8 9.7 0.00 0.00 0.00 87 1013.6
20260506145019 16 121 4.8 9.7 0.00 0.00 0.00 87 1013.6
20260506144524 16 79 1.6 9.7 0.00 0.00 0.00 87 1013.5
20260506144520 16 113 1.6 11.3 0.00 0.00 0.00 86 1013.5
20260506144046 16 113 1.6 11.3 0.00 0.00 0.00 86 1013.5
20260506144020 16 155 4.8 11.3 0.00 0.00 0.00 86 1013.4
20260506143520 16 155 4.8 11.3 0.00 0.00 0.00 86 1013.4
20260506143020 16 155 6.4 17.7 0.00 0.00 0.00 86 1013.0
20260506143017 16 141 4.8 12.9 0.00 0.00 0.00 86 1013.1
20260506142522 16 155 6.4 17.7 0.00 0.00 0.00 86 1013.0
20260506142021 16 134 8.0 19.3 0.00 0.00 0.00 85 1012.9
20260506142015 16 134 8.0 19.3 0.00 0.00 0.00 85 1012.9
20260506141538 16 134 6.4 19.3 0.00 0.00 0.00 85 1013.0
20260506141519 16 147 3.2 9.7 0.00 0.00 0.00 85 1013.0
20260506141019 16 141 3.2 11.3 0.00 0.00 0.00 85 1013.0
20260506140524 16 141 3.2 11.3 0.00 0.00 0.00 85 1013.0
20260506140522 16 142 4.8 14.5 0.00 0.00 0.00 85 1013.1
20260506140036 16 142 4.8 14.5 0.00 0.00 0.00 85 1013.1
20260506140018 16 142 4.8 14.5 0.00 0.00 0.00 85 1013.1
20260506135523 16 152 6.4 19.3 0.00 0.00 0.00 85 1013.0
20260506135521 16 139 3.2 9.7 0.00 0.00 0.00 85 1013.1
20260506135023 16 115 1.6 9.7 0.00 0.00 0.00 85 1013.0
20260506135020 16 139 3.2 9.7 0.00 0.00 0.00 85 1013.1
20260506134518 16 115 1.6 9.7 0.00 0.00 0.00 85 1013.0
20260506134020 16 130 3.2 14.5 0.00 0.00 0.00 85 1013.2
20260506133522 16 130 3.2 14.5 0.00 0.00 0.00 85 1013.2
20260506133024 16 154 6.4 14.5 0.00 0.00 0.00 85 1013.2
20260506133021 16 141 6.4 16.1 0.00 0.00 0.00 85 1013.3
20260506132522 16 141 6.4 16.1 0.00 0.00 0.00 85 1013.3
20260506132520 16 134 3.2 11.3 0.00 0.00 0.00 85 1013.2
20260506132020 16 143 1.6 11.3 0.00 0.00 0.00 85 1013.3
20260506131522 16 143 1.6 11.3 0.00 0.00 0.00 85 1013.3
20260506131020 16 140 4.8 14.5 0.00 0.00 0.00 85 1013.6
20260506131018 16 149 3.2 12.9 0.00 0.00 0.00 85 1013.5
20260506130522 16 140 4.8 14.5 0.00 0.00 0.00 85 1013.6
20260506130021 16 130 3.2 14.5 0.00 0.00 0.00 86 1013.6
20260506130019 16 150 6.4 17.7 0.00 0.00 0.00 85 1013.6
20260506125525 16 130 3.2 14.5 0.00 0.00 0.00 86 1013.6
20260506125520 16 136 3.2 12.9 0.00 0.00 0.00 86 1013.6
20260506125024 16 136 3.2 12.9 0.00 0.00 0.00 86 1013.6
20260506125021 16 98 3.2 8.0 0.00 0.00 0.00 86 1013.7
20260506124520 16 98 3.2 8.0 0.00 0.00 0.00 86 1013.7
20260506124023 16 148 8.0 20.9 0.00 0.00 0.00 85 1013.8
20260506124019 16 155 8.0 20.9 0.00 0.00 0.00 85 1013.8
20260506123522 16 150 9.7 20.9 0.00 0.00 0.00 85 1013.8
20260506123520 16 155 8.0 20.9 0.00 0.00 0.00 85 1013.8
20260506123023 16 150 9.7 20.9 0.00 0.00 0.00 85 1013.8
20260506123018 16 150 4.8 12.9 0.00 0.00 0.00 85 1013.8
20260506122524 16 150 4.8 12.9 0.00 0.00 0.00 85 1013.8
20260506122518 17 140 9.7 16.1 0.00 0.00 0.00 84 1013.9
20260506122106 17 140 9.7 16.1 0.00 0.00 0.00 84 1013.9
20260506122019 17 150 11.3 22.5 0.00 0.00 0.00 84 1013.8
20260506121524 17 150 11.3 22.5 0.00 0.00 0.00 84 1013.8
20260506121021 17 99 4.8 16.1 0.00 0.00 0.00 85 1013.8
20260506121017 17 99 4.8 16.1 0.00 0.00 0.00 85 1013.8
20260506120526 16 145 6.4 16.1 0.00 0.00 0.00 85 1013.9
20260506120521 16 95 1.6 9.7 0.00 0.00 0.00 85 1013.8
20260506120022 16 95 1.6 9.7 0.00 0.00 0.00 85 1013.8
20260506115521 16 143 4.8 19.3 0.00 0.00 0.00 86 1013.7
20260506115519 16 20 4.8 12.9 0.00 0.00 0.00 86 1013.8
20260506115023 16 20 4.8 12.9 0.00 0.00 0.00 86 1013.8
20260506115021 16 165 1.6 14.5 0.00 0.00 0.00 87 1013.9
20260506114520 16 165 1.6 14.5 0.00 0.00 0.00 87 1013.9
20260506114518 16 141 4.8 12.9 0.00 0.00 0.00 87 1014.0
20260506114019 16 141 4.8 12.9 0.00 0.00 0.00 87 1014.0
20260506114015 16 141 4.8 12.9 0.00 0.00 0.00 87 1014.0
20260506113521 16 129 3.2 12.9 0.00 0.00 0.00 87 1014.1
20260506113519 16 157 3.2 9.7 0.00 0.00 0.00 87 1014.0
20260506113024 16 129 3.2 12.9 0.00 0.00 0.00 87 1014.1
20260506113019 16 145 3.2 9.7 0.00 0.00 0.00 87 1014.1
20260506112519 16 145 3.2 8.0 0.00 0.00 0.00 87 1014.2
20260506112024 16 145 3.2 8.0 0.00 0.00 0.00 87 1014.2
20260506111520 16 101 1.6 8.0 0.00 0.00 0.00 87 1014.0
20260506111518 16 141 4.8 11.3 0.00 0.00 0.00 87 1013.9
20260506111021 16 154 4.8 14.5 0.00 0.00 0.00 87 1014.1
20260506111019 16 141 4.8 11.3 0.00 0.00 0.00 87 1013.9
20260506110520 16 154 4.8 14.5 0.00 0.00 0.00 87 1014.1
20260506110015 16 136 3.2 9.7 0.00 0.00 0.00 87 1014.3
20260506105519 16 144 3.2 17.7 0.00 0.00 0.00 88 1014.2
20260506105515 16 144 3.2 17.7 0.00 0.00 0.00 88 1014.2
20260506105042 16 128 4.8 9.7 0.00 0.00 0.00 88 1014.3
20260506105022 16 116 1.6 9.7 0.00 0.00 0.00 88 1014.3
20260506104520 16 116 1.6 9.7 0.00 0.00 0.00 88 1014.3
20260506104518 16 139 1.6 9.7 0.00 0.00 0.00 87 1014.2
20260506104020 16 139 1.6 9.7 0.00 0.00 0.00 87 1014.2